Change the Weather History Date:

Monday, November 25, 2013

  Actual Average Record
Temperature  
Mean Temperature 48 °F 48 °F  
Max Temperature 57 °F 54 °F 68 °F (1975)
Min Temperature 38 °F 43 °F 31 °F (1978)
Degree Days  
Heating Degree Days 17 17  
Month to date heating degree days 362 369  
Since 1 July heating degree days 1514 1533  
Cooling Degree Days 0 0  
Month to date cooling degree days 0 0  
Year to date cooling degree days 4 0  
Moisture  
Dew Point 35 °F    
Average Humidity 66    
Maximum Humidity 89    
Minimum Humidity 43    
Precipitation  
Precipitation 0.00 in 0.33 in 1.51 in (1960)
Month to date precipitation 1.97 7.96  
Year to date precipitation 27.06 50.99  
Since 1 July precipitation 7.13 14.06  
Snow  
Snow 0.00 in - - ()
Month to date snowfall 0.0  
Since 1 July snowfall 0.0  
Since 1 September snowfall 0.0  
Snow Depth 0.00 in    
Sea Level Pressure  
Sea Level Pressure 30.29 in    
Wind  
Wind Speed 6 mph (ESE)    
Max Wind Speed 10 mph    
Max Gust Speed 14 mph    
Visibility 10 miles    
Events      
T = Trace of Precipitation, MM = Missing Value Source: NWS Daily Summary

Daily Weather History Graph

Daily Weather History Graph

Search for Another Location

Airport or City:

Trip Planner

Search our weather history database for the weather conditions in past years. The results will help you decide how hot, cold, wet, or windy it might be!

Date:

Astronomy

Nov. 25, 2013 Rise Set
Actual Time 7:18 AM PST 4:49 PM PST
Civil Twilight 6:47 AM PST 5:19 PM PST
Nautical Twilight 6:13 AM PST 5:54 PM PST
Astronomical Twilight 5:40 AM PST 6:27 PM PST
Moon No Moon Rise 12:34 PM PST (11/25)
Length of Visible Light 10h 32m
Length of Day
9h 30m
Waning Gibbous, 50% of the Moon is Illuminated
Nov 25
Waning Gibbous
Dec 2
New
Dec 9
First Quarter
Dec 17
Full
Dec 25
Last Quarter

Hourly Weather History & Observations

Time (PST) Temp. Windchill Dew Point Humidity Pressure Visibility Wind Dir Wind Speed Gust Speed Precip Events Conditions
12:56 AM 39.0 °F 34.0 °F 32.0 °F 76% 30.27 in 10.0 mi East 6.9 mph - N/A   Clear
1:56 AM 42.1 °F 37.1 °F 33.1 °F 70% 30.27 in 10.0 mi East 8.1 mph - N/A   Clear
2:56 AM 43.0 °F 37.7 °F 32.0 °F 65% 30.26 in 10.0 mi East 9.2 mph - N/A   Clear
3:56 AM 43.0 °F 37.7 °F 32.0 °F 65% 30.26 in 10.0 mi East 9.2 mph - N/A   Clear
4:56 AM 42.1 °F 36.6 °F 32.0 °F 67% 30.26 in 10.0 mi East 9.2 mph - N/A   Clear
5:56 AM 41.0 °F 36.4 °F 30.9 °F 67% 30.27 in 10.0 mi East 6.9 mph - N/A   Clear
6:56 AM 39.9 °F 35.1 °F 32.0 °F 73% 30.29 in 10.0 mi East 6.9 mph - N/A   Clear
7:56 AM 42.1 °F 37.1 °F 30.9 °F 65% 30.30 in 10.0 mi East 8.1 mph - N/A   Clear
8:56 AM 48.0 °F - 33.1 °F 56% 30.32 in 10.0 mi East 6.9 mph - N/A   Clear
9:56 AM 52.0 °F - 37.0 °F 57% 30.33 in 10.0 mi South 4.6 mph - N/A   Clear
10:56 AM 54.0 °F - 35.1 °F 49% 30.33 in 10.0 mi SSE 6.9 mph - N/A   Clear
11:56 AM 55.0 °F - 35.1 °F 47% 30.31 in 10.0 mi SSE 10.4 mph - N/A   Clear
12:56 PM 55.9 °F - 39.0 °F 53% 30.30 in 10.0 mi South 5.8 mph - N/A   Clear
1:56 PM 57.0 °F - 36.0 °F 45% 30.29 in 10.0 mi South 4.6 mph - N/A   Clear
2:56 PM 55.9 °F - 36.0 °F 47% 30.29 in 10.0 mi South 4.6 mph - N/A   Clear
3:56 PM 53.1 °F - 36.0 °F 52% 30.28 in 10.0 mi South 3.5 mph - N/A   Clear
4:56 PM 48.9 °F - 37.9 °F 66% 30.28 in 10.0 mi East 3.5 mph - N/A   Clear
5:56 PM 45.0 °F 43.5 °F 37.9 °F 76% 30.28 in 10.0 mi East 3.5 mph - N/A   Clear
6:56 PM 46.0 °F 43.9 °F 39.9 °F 79% 30.28 in 10.0 mi East 4.6 mph - N/A   Clear
7:56 PM 43.0 °F 40.3 °F 39.0 °F 86% 30.28 in 10.0 mi East 4.6 mph - N/A   Clear
8:56 PM 45.0 °F 42.6 °F 39.0 °F 80% 30.28 in 10.0 mi East 4.6 mph - N/A   Clear
9:56 PM 44.1 °F 40.1 °F 39.0 °F 82% 30.29 in 10.0 mi East 6.9 mph - N/A   Clear
10:56 PM 45.0 °F 41.2 °F 37.9 °F 76% 30.28 in 10.0 mi ENE 6.9 mph - N/A   Clear
11:56 PM 43.0 °F 39.5 °F 37.0 °F 80% 30.27 in 10.0 mi East 5.8 mph - N/A   Clear